Flag for Germany Weather past 2 weeks in Eckernförde, Schleswig-Holstein, Germany

Now
57 °F

Overcast.


Feels Like: 56 °F
Forecast: 52 / 62 °F
Wind: 7 mph from Southwest

Location: Schleswig

Current Time: Aug 22, 2014 at 12:15:36 PM

Latest Report: Aug 22, 2014 at 11:00 AM


Visibility: 13 mi

Pressure: 29.78 "Hg

Humidity: 80%

Dew point: 51 °F

Location of EckernfördeLocation

Historic Weather in Eckernförde — Graph

°F

Eckernförde temperature yesterday

Maximum temperature yesterday: 61 °F (at 1:00 PM)
Minimum temperature yesterday: 49 °F (at 5:00 AM)
Average temperature yesterday: 53 °F

Past Weeks' High & Low Weather Summary

 TemperatureHumidityPressure
High77 °F (Aug 8, 2:00 PM)99% (Aug 8, 3:00 AM)29.99 "Hg (Aug 8, 3:00 AM)
Low49 °F (Aug 21, 5:00 AM)44% (Aug 8, 4:00 PM)29.38 "Hg (Aug 18, 11:00 AM)
Average60 °F80%29.75 "Hg
* Reported Aug 7 12:00 Noon — Aug 22 11:00 AM, Eckernförde, Weather by CustomWeather, © 2014

Note: Actual official high and low records may vary slightly from our data, if they occured in-between our weather recording intervals... More about our weather records

Advertising

Eckernförde weather history for previous 24 hours

 ConditionsComfort  
Time TempWeatherWind HumidityBarometerVisibility
11:00 AM
Aug 22
57 °FOvercast.7 mph80%29.78 "Hg12 mi
10:00 AM56 °FLight rain. Overcast.6 mph83%29.78 "Hg9 mi
9:00 AM54 °FOvercast.6 mph87%29.78 "Hg6 mi
8:00 AM53 °FFog.6 mph89%29.79 "Hg4 mi
7:00 AM52 °FFog.5 mph90%29.80 "Hg3 mi
6:00 AM52 °FOvercast.3 mph90%29.81 "Hg3 mi
4:00 AM51 °FFog.3 mph92%29.83 "Hg3 mi
3:00 AM51 °FFog.5 mph93%29.85 "Hg3 mi
2:00 AM52 °FOvercast.5 mph92%29.86 "Hg5 mi
1:00 AM52 °FOvercast.3 mph93%29.88 "Hg6 mi
12:00 AM52 °FOvercast.3 mph95%29.89 "Hg9 mi
11:00 PM
Aug 21
51 °FOvercast.2 mph96%29.89 "Hg6 mi
10:00 PM52 °FOvercast.3 mph94%29.90 "Hg9 mi
9:00 PM52 °FLight rain. Overcast.3 mph94%29.91 "Hg12 mi
8:00 PM52 °FRain showers. Overcast.3 mph94%29.91 "Hg6 mi
7:00 PM57 °FOvercast.1 mph80%29.90 "Hg19 mi
6:00 PM58 °FOvercast.3 mph77%29.91 "Hg19 mi
4:00 PM54 °FRain showers. Overcast.9 mph88%29.94 "Hg19 mi
3:00 PM58 °FPartly sunny.6 mph74%29.92 "Hg25 mi
2:00 PM57 °FPartly sunny.5 mph83%29.93 "Hg25 mi
1:00 PM61 °FSprinkles. Scattered clouds.6 mph64%29.91 "Hg22 mi
12:00 PM59 °FScattered clouds.6 mph69%29.92 "Hg22 mi
Weather by CustomWeather, © 2014

See weather overviewHow to use our weather pages